Regional Weather Roundup
Issued by NWS

Home | Current Version | Previous Version | Text Only | Print | Product List | Glossary Off
Versions: 1 2 3 4 5 6 7 8 9 10 11 12 13 14 15 16 17 18 19 20 21 22 23 24 25 26 27 28 29 30 31 32 33 34 35 36 37 38 39 40 41 42 43 44 45 46 47 48 49 50

000
ASUS43 KMPX 261501
RWRMN
WEATHER ROUNDUP FOR MINNESOTA
NATIONAL WEATHER SERVICE TWIN CITIES/CHANHASSEN MN
1000 AM CDT SAT JUL 26 2014


NOTE: "FAIR" INDICATES FEW OR NO CLOUDS BELOW 12,000 FEET WITH NO
SIGNIFICANT WEATHER AND/OR OBSTRUCTIONS TO VISIBILITY. N/A MEANS
CURRENT SKY AND/OR WEATHER CONDITIONS ARE NOT AVAILABLE.

MNZ060>063-068>070-261600-
   Twin Cities Metro

CITY           SKY/WX    TMP DP  RH WIND       PRES   REMARKS
TWIN CITIES    MOSUNNY   79  64  60 NW3       29.82F
ST PAUL        MOSUNNY   78  64  61 S3        29.82S
CRYSTAL        MOSUNNY   79  60  52 VRB3      29.81F
BLAINE         MOSUNNY   79  63  57 CALM      29.81S
LAKEVILLE      PTSUNNY   75  70  83 CALM      29.83R
EDEN PRAIRIE   MOSUNNY   77  66  68 CALM      29.82R
SOUTH ST PAUL  MOSUNNY   78  64  61 CALM      29.82R
LAKE ELMO      FAIR      79  64  61 CALM      29.83S
$$
MNZ001>005-007-008-013>017-022>024-027-028-261600-
   Northwest Minnesota

CITY           SKY/WX    TMP DP  RH WIND       PRES   REMARKS
BEMIDJI        SUNNY     71  58  63 SW6       29.79S
HALLOCK        SUNNY     72  57  60 W13       29.71S
ROSEAU         SUNNY     73  61  64 S14       29.72F
WARROAD        SUNNY     73  61  64 SW7       29.74S
THIEF RVR FALL MOSUNNY   72  57  60 SW15G21   29.75F
CROOKSTON      SUNNY     72  61  68 SW16      29.75F
FOSSTON        SUNNY     72  61  68 SW15      29.80R
DETROIT LAKES  SUNNY     73  57  56 SW8       29.83S
MOORHEAD       SUNNY     73  63  68 W9        29.80F
PARK RAPIDS    SUNNY     75  56  51 W5        29.80R
$$
MNZ006-009>011-018-025>026-261600-
   North Central Minnesota

CITY           SKY/WX    TMP DP  RH WIND       PRES   REMARKS
BAUDETTE       SUNNY     74  57  55 SW7       29.76F
FLAG ISLAND    SUNNY     70  61  73 S8        29.72F
INTL FALLS     SUNNY     72  60  66 W6        29.76F
WASKISH        MOSUNNY   73  59  60 CALM      29.77F
BIG FORK       SUNNY     73  57  56 W3        29.80F
LONGVILLE      SUNNY     73  57  56 CALM      29.79F
GRAND RAPIDS   SUNNY     72  55  56 W5        29.81F
CRANE LAKE     SUNNY     70  55  60 W6        29.78F
ORR            SUNNY     72  55  56 W5        29.76F
COOK           SUNNY     72  57  60 W6        29.79F
$$
MNZ012-019>021-037-261600-
   Northeast Minnesota

CITY           SKY/WX    TMP DP  RH WIND       PRES   REMARKS
DULUTH         SUNNY     75  56  51 NW9       29.81S
ELY            SUNNY     72  55  56 W10G16    29.78S
HIBBING        SUNNY     76  57  51 NW8       29.80F
EVELETH        SUNNY     72  54  53 NW8       29.81F
DULUTH HARBOR  SUNNY     75  61  60 W8        29.79S
TWO HARBORS    SUNNY     73  57  56 W8        29.77S
SILVER BAY     SUNNY     73  61  64 W6        29.75S
GRAND MARAIS     N/A     58  54  86 W7        29.72S
G MARAIS ARPRT SUNNY     72  55  56 W7        29.77R
$$
MNZ029>031-032-039>041-046>048-054>057-064-261600-
   West Central Minnesota

CITY           SKY/WX    TMP DP  RH WIND       PRES   REMARKS
FERGUS FALLS   SUNNY     73  57  56 SW8       29.82S
MORRIS         SUNNY     75  64  69 S9        29.82S
ALEXANDRIA     SUNNY     75  59  57 SW9       29.85R
ELBOW LAKE     FAIR      72  62  72 SW7       29.84R
WADENA         SUNNY     73  61  64 SW7       29.82R
GLENWOOD       SUNNY     75  61  60 S7        29.84S
APPLETON       MOSUNNY   75  66  73 S9        29.85R
BENSON         MOSUNNY   75  64  69 SW10      29.84R
ORTONVILLE     MOSUNNY   73  64  73 S5        29.84S
MADISON        PTSUNNY   73  72  94 CALM      29.85F
WILLMAR        FAIR      75  64  69 SE5       29.86R
$$
MNZ033>034-036-042>043-049>051-058-059-261600-
   Central Minnesota

CITY           SKY/WX    TMP DP  RH WIND       PRES   REMARKS
ST CLOUD       SUNNY     77  61  57 SW5       29.82S
SAUK CENTRE    FAIR      75  59  57 S7        29.84R
PAYNESVILLE    SUNNY     72  61  67 E6        29.84S
AITKIN         SUNNY     75  63  64 CALM      29.78F
PINE RIVER     SUNNY     73  61  64 E3        29.82F
BRAINERD       SUNNY     74  60  61 VRB6      29.79F
STAPLES        SUNNY     73  57  56 S8        29.81R
LONG PRAIRIE   FAIR      72  59  64 S7        29.83F
LITTLE FALLS   SUNNY     72  59  64 SW8       29.82S
LITCHFIELD     MOSUNNY   77  63  61 SE6       29.83F
BUFFALO        SUNNY     76  61  59 S3        29.84S
MAPLE LAKE     SUNNY     76  65  67 CALM      29.84S
$$
MNZ037-044-045-052-053-261600-
   East Central Minnesota

CITY           SKY/WX    TMP DP  RH WIND       PRES   REMARKS
PRINCETON      SUNNY     79  57  47 S3        29.81F
MORA           SUNNY     73  59  60 NE6       29.79F
CAMBRIDGE      SUNNY     79  61  53 SE6       29.79R
RUSH CITY      SUNNY     75  61  61 NE5       29.80F
MOOSE LAKE     SUNNY     75  57  53 N6        29.79F
HINCKLEY       FAIR      75  61  60 CALM      29.81S
CLOQUET        SUNNY     75  52  43 W7        29.81F
MCGREGOR       SUNNY     73  59  60 CALM      29.81F
$$
MNZ071>073-080-081-089-090-097-098-261600-
   Southwest Minnesota

CITY           SKY/WX    TMP DP  RH WIND       PRES   REMARKS
MONTEVIDEO     PTSUNNY   72  72 100 W3        29.87R
GRANITE FALLS  PTSUNNY   68  69 100 CALM      29.87R FOG
CANBY          CLOUDY    69  68  95 CALM      29.87R FOG
MARSHALL       CLOUDY    70  66  88 CALM      29.84R
REDWOOD FALLS  CLOUDY    71  69  93 NW8       29.87R FOG
OLIVIA         PTSUNNY   70  68  94 W5        29.85R
PIPESTONE      LGT RAIN  70  68  94 CALM      29.87R
WINDOM         CLOUDY    73  70  88 CALM      29.85F
WORTHINGTON    CLOUDY    73  70  88 NE3       29.86R
JACKSON        CLOUDY    73  70  88 NE7       29.84S
TRACY          LGT RAIN  71  69  95 CALM      29.87R
SLAYTON        LGT RAIN  69  69  98 CALM      29.87S
$$
MNZ065>067-074>077-082>085-091>093-261600-
   South Central Minnesota

CITY           SKY/WX    TMP DP  RH WIND       PRES   REMARKS
MANKATO        PTSUNNY   72  68  88 W6        29.84R
NEW ULM        LGT RAIN  72  72 100 SE8       29.79F
ST JAMES       CLOUDY    73  70  88 CALM      29.85F
FAIRMONT       CLOUDY    73  59  60 NW5       29.85R
GLENCOE        MOSUNNY   78  62  56 E5        29.82F
FARIBAULT      PTSUNNY   81  66  61 N8        29.82F
OWATONNA       CLOUDY    73  70  88 NE5       29.83R FOG
WASECA         CLOUDY    72  68  88 N6        29.85R FOG
ALBERT LEA     CLOUDY    73  72  94 CALM      29.82S FOG
$$
MNZ078>079-086>088-094>096-261600-
   Southeast Minnesota

CITY           SKY/WX    TMP DP  RH WIND       PRES   REMARKS
ROCHESTER      CLOUDY    72  69  90 NW3       29.85F FOG
RED WING       CLOUDY    77  70  78 SW3       29.81S
STANTON        CLOUDY    77  70  77 NW6       29.82R
DODGE CENTER   CLOUDY    73  72  94 NW5       29.85R FOG
WINONA         CLOUDY    72  68  88 CALM      29.82F
AUSTIN         CLOUDY    72  72 100 CALM      29.84R FOG
PRESTON        CLOUDY    68  68 100 S9        29.84F FOG
$$
ABBREVIATIONS USED IN REMARKS
   TC - TEMPERATURES IN CELSIUS
  WCI - WIND CHILL INDEX
   HX - HEAT INDEX
  VSB - VISIBILITY
$$


USA.gov is the U.S. government's official web portal to all federal, state and local government web resources and services.